TimeMST,TemperatureF,Dew PointF,Humidity,Sea Level PressureIn,VisibilityMPH,Wind Direction,Wind SpeedMPH,Gust SpeedMPH,PrecipitationIn,Events,Conditions,WindDirDegrees,DateUTC
12:51 AM,26.1,10.9,53,30.07,10.0,South,3.5,-,N/A,,Clear,190,2012-12-12 07:51:00
1:51 AM,21.9,10.0,60,30.07,10.0,SE,4.6,-,N/A,,Clear,140,2012-12-12 08:51:00
2:51 AM,21.9,10.0,60,30.05,10.0,East,4.6,-,N/A,,Clear,100,2012-12-12 09:51:00
3:51 AM,21.9,10.0,60,30.05,10.0,Calm,Calm,-,N/A,,Clear,0,2012-12-12 10:51:00
4:51 AM,19.9,9.0,62,30.07,10.0,Calm,Calm,-,N/A,,Clear,0,2012-12-12 11:51:00
5:51 AM,18.0,8.1,65,30.09,10.0,Calm,Calm,-,N/A,,Clear,0,2012-12-12 12:51:00
6:51 AM,19.9,10.0,65,30.12,10.0,Calm,Calm,-,N/A,,Clear,0,2012-12-12 13:51:00
7:51 AM,26.1,10.9,53,30.13,10.0,North,4.6,-,N/A,,Clear,350,2012-12-12 14:51:00
8:47 AM,30.2,14.0,51,30.10,2.5,NNE,4.6,-,N/A,,Haze,30,2012-12-12 15:47:00
8:51 AM,30.0,14.0,51,30.12,4.0,NE,3.5,-,N/A,,Haze,50,2012-12-12 15:51:00
9:12 AM,32.0,14.0,48,30.11,10.0,North,4.6,-,N/A,,Clear,10,2012-12-12 16:12:00
9:51 AM,35.1,14.0,42,30.12,8.0,North,5.8,-,N/A,,Clear,360,2012-12-12 16:51:00
10:51 AM,41.0,14.0,33,30.10,9.0,Calm,Calm,-,N/A,,Clear,0,2012-12-12 17:51:00
11:51 AM,45.0,16.0,31,30.05,8.0,ENE,3.5,-,N/A,,Clear,70,2012-12-12 18:51:00
12:51 PM,51.1,14.0,23,30.01,10.0,Variable,3.5,-,N/A,,Clear,0,2012-12-12 19:51:00
1:51 PM,55.0,15.1,21,29.99,10.0,East,4.6,-,N/A,,Clear,80,2012-12-12 20:51:00
2:51 PM,60.1,14.0,16,29.96,10.0,East,3.5,-,N/A,,Clear,80,2012-12-12 21:51:00
3:51 PM,57.9,16.0,19,29.96,10.0,North,5.8,-,N/A,,Clear,10,2012-12-12 22:51:00
4:51 PM,51.1,16.0,25,29.99,10.0,North,4.6,-,N/A,,Clear,10,2012-12-12 23:51:00
5:51 PM,50.0,15.1,25,30.01,10.0,North,5.8,-,N/A,,Clear,350,2012-12-13 00:51:00
7:51 PM,41.0,14.0,33,30.05,10.0,West,8.1,-,N/A,,Clear,280,2012-12-13 02:51:00
9:51 PM,32.0,14.0,48,30.08,10.0,Calm,Calm,-,N/A,,Clear,0,2012-12-13 04:51:00
10:51 PM,30.0,12.0,47,30.07,10.0,Calm,Calm,-,N/A,,Clear,0,2012-12-13 05:51:00
11:51 PM,28.0,12.0,51,30.06,10.0,WSW,4.6,-,N/A,,Clear,250,2012-12-13 06:51:00